Location: Newark
(14.1000°N, 87.2167°W)
Time: 10:41:13
(UTC+00:00)

Hubble Space Telescope - Pass Details

Date: 25 July 2019
Orbit: 536 x 540 km, 28.5° (Epoch: 19 August)

Event Time Altitude Azimuth Distance (km) Brightness Sun altitude
Exits shadow 10:36:43 14° 284° (WNW) 1,533 2.6 -13.0°
Maximum altitude 10:39:36 30° 339° (NNW) 980 2.1 -12.4°
Drops below altitude 10° 10:43:14 10° 41° (NE) 1,777 4.5 -11.6°
Sets 10:45:42 0° 53° (NE) 2,667 6.1 -11.1°
